Temp
24 24 24 24 25 25 25 24 25 25 25 24 24 25 24 24 25 25 25 25 25 25
24 24 25 24 25 25 24 24 24 24 24 24 24 24 24 24 24 25 25 25 25 25
24 25 25 25 24 24 24 24 24 24 24 24 24 24 24 24 24 25 25 25 24 25
24 24 24 24 24 24 24 24 24 25 24 24 25 24 24 24 24 25 24 25 25 25
24 24 24 24 25 25 25 25 24 24 24 24 24 24 24 24 24 25 25 25 25 25
24 24 24 24 24 25 25 25 24 25 24 24 24 24 24 24 24 24 24 25 25 25
24 24 24 25 24 24 25 25 24 24 24 24 24 24 24 25 24 24 24 24 25 25
25 25 25 24 24 24 24 24 24 24 24 24 24 24 24 25 24 24 24 24 24 24
24 24 25 24 23 23 23 23 24 24 24 23 23 23 23 23 23 24 24 24 24 23
23 23 23 24 23 23 23 21 22 23 22 22 22 22 22 23 23 23 23 23 24 23
22 21 21 22 23 23 22 22 20 21 21 20 21 21 22 22 22 22 22 22 22 22
21 20 20 21 22 22 22 21 20 20 19 19 20 21 22 22 21 20 20 20 20 20
20 20 20 20 20 21 21 20 19 18 18 18 20 21 21 20 20 19 19 18 19 19
19 19 18 19 19 19 19 18 17 17 17 18 19 19 20 18 19 19 18 18 18 18
Height
851 852 853 855 856 855 856 858 859 860 862 865 866 867 868 869 869 869 869 868 867 867
847 849 851 852 853 854 854 856 859 860 861 862 863 864 866 867 867 867 867 867 866 866
841 844 848 850 851 852 853 855 857 859 860 862 862 862 864 865 866 865 866 866 867 867
838 842 845 847 849 850 852 852 854 856 858 861 861 861 862 863 864 864 864 864 864 864
835 838 841 843 844 846 848 850 852 853 856 858 860 861 861 861 861 861 862 863 863 863
832 835 837 841 842 844 846 849 850 851 853 856 858 859 860 860 860 859 860 862 862 861
831 832 834 837 841 843 844 847 849 850 852 854 855 856 856 856 858 859 861 861 859 859
828 829 833 837 840 844 845 846 847 849 851 852 852 853 854 855 855 856 858 859 858 857
826 828 830 833 837 839 841 846 847 847 847 849 850 851 851 852 852 854 856 856 856 855
820 825 829 831 832 836 838 842 845 844 845 848 849 849 849 849 850 851 853 854 854 854
818 822 826 828 829 831 834 837 841 843 842 846 848 848 847 847 847 848 849 850 851 851
814 821 824 825 827 829 832 834 837 838 841 845 848 847 845 845 845 846 847 848 849 850
813 818 821 824 827 827 830 831 833 837 840 844 844 844 845 844 845 845 845 848 850 849
813 817 822 823 825 827 830 834 837 839 839 840 841 842 844 846 846 845 846 848 851 852
Wind_Speed
14 14 11 14 15 15 15 11 10 12 10 9 7 6 5 4 2 1 3 2 5 5
16 14 12 16 10 14 13 13 10 14 12 9 9 6 7 5 3 3 1 4 4 6
21 16 13 14 15 16 17 13 11 14 12 13 11 10 9 7 5 4 3 2 1 2
22 20 18 16 14 13 12 15 14 12 11 9 8 12 10 10 8 5 7 5 4 3
26 25 23 19 16 13 11 11 10 14 12 11 9 11 13 12 10 10 9 8 7 6
29 28 26 25 22 17 13 13 9 10 13 13 13 13 11 10 9 10 7 9 12 10
31 29 28 25 25 23 19 17 13 11 11 11 12 11 12 13 5 9 8 4 1 6
32 29 29 25 23 21 26 22 18 13 13 10 10 13 13 10 8 8 6 4 5 4
29 25 23 20 15 19 16 22 19 14 12 11 9 9 7 8 9 10 8 6 5 2
17 20 12 21 19 25 17 16 13 11 9 9 10 11 10 8 7 9 8 8 7 6
19 16 12 11 15 17 19 20 18 11 11 9 6 4 4 6 8 9 10 9 9 7
19 20 15 13 12 14 17 17 18 12 10 11 7 3 1 2 7 11 11 10 8 6
19 14 13 13 11 11 13 15 16 16 13 8 3 3 1 5 11 13 13 11 9 9
17 16 14 13 11 13 15 16 16 14 10 6 5 4 2 6 12 14 15 13 11 9
Wind_Direction
214 226 223 219 207 208 217 214 216 209 210 222 233 213 221 237 228 165 104 91 79 120
209 217 217 202 214 229 225 216 230 208 204 216 221 217 214 234 240 238 291 97 73 132
200 198 198 208 224 225 224 212 205 207 210 218 229 220 217 223 229 228 227 259 275 88
199 196 199 211 219 228 231 222 219 217 209 228 227 213 225 225 233 239 210 237 227 249
205 203 208 212 216 225 230 201 221 211 214 216 232 225 227 230 231 220 215 215 222 228
210 208 209 217 218 218 221 223 221 214 222 235 246 244 240 241 242 210 225 241 235 232
214 214 216 219 224 224 219 219 223 228 228 232 229 240 250 234 221 222 224 228 202 224
222 217 221 222 229 232 233 227 220 219 233 238 234 240 243 239 215 229 233 229 227 257
229 220 216 201 218 216 236 232 232 223 229 231 243 257 260 243 236 219 232 231 216 208
209 219 239 216 205 227 223 218 226 206 208 211 231 252 262 251 238 224 218 204 213 204
227 232 223 217 219 223 227 221 239 234 210 246 248 256 287 256 239 218 212 208 196 196
217 208 217 238 238 216 215 202 200 217 211 195 209 227 333 291 177 171 151 142 139 138
184 186 184 192 186 180 190 179 170 174 172 168 169 208 177 200 180 152 139 131 129 123
162 170 182 172 172 170 165 159 153 153 144 133 109 92 52 182 171 153 138 131 125 118